DECAYED

STARLINK-2296, 47998 (Decayed)

Orbit data source: Space-Track

STARLINK-2296, 47998 was a payload satellite owned by SpaceX/Seattle (US) in LEO that was launched on Wed, 24 Mar 2021 UTC via an FALCON 9 launch vehicle from the Air Force Eastern Test Range (AFETR). Payload-class satellites include a variety of spacecraft equipped with specific instruments for various scientific and technological missions. These include communications satellites like Starlink; space stations such as the ISS; scientific satellites like the Hubble; Earth observation satellites from companies like Planet Labs, Umbra, and HawkEye 360; GPS; miniature CubeSats for education and research; and military/defense satellites.

Not visible in the next 10 days
Identifier
47998, 2021-024X
Orbit
Decayed
Country
Flag of USUS
Related business
Manufacturer
SpaceX/Seattle
Mission
Decayed Commercial Communications
Bus & Motor
STARLINK, Unknown motor
Mass
260 kg wet, ~248 kg dry
Launch date (UTC)
2021-03-24 (5 years ago)
Launch vehicle
FALCON 9
Launch site
Air Force Eastern Test Range (AFETR)
Object type
Payload
Rocket body
Debris
Shape & HBR
Box + 1 Pan, 10.1 m
Radar Cross Section
13.562 m², Large (>1 m²)

Expand to show TLE details & history
Last TLE update: 1 year ago

TLE from 1 year ago
0 STARLINK-2296
1 47998U 21024X   25024.24930875  .13376293  12384-4  74162-3 0  9996
2 47998  53.0215 292.5536 0003105 222.8197 279.1359 16.42173989213469
Epoch: 2025-01-24T05:59Z
TLE epoch observation values (Epoch: 2025-01-24T05:59:00.276Z)
Latitude
29.61391°
Longitude
-126.19633°
Altitude
161.331 km
Speed
7.814 km/s
True Right ascension
05h 49m 28s
True Declination
29° 27' 11"
Sunlit
Object was in full shadow at epoch
Visualization orbit readout
Latitude
Unknown
Longitude
Unknown
Altitude
Unknown
Speed
Unknown
Apparent Right ascension
Unknown
Apparent Declination
Unknown
Sunlit
N/A
Visualization observer readout
Local Sidereal Time
10:19:13
Azimuth
Unknown
Elevation
Unknown
Doppler factor
Unknown
Orbital elements
Apogee altitude
162.348 km
Perigee altitude
158.287 km
Semi-major axis
6,538.455 km
Eccentricity
0.00031
Inclination
53.0215°
RAAN
292.5536°
Arg. of periapsis
222.8197°
True anomaly
279.10077°
Mean anomaly
279.1359°
Eccentric anomaly
279.11833°
Mean motion
4.10516 °/min
Orbital period
87.69 mins
BSTAR
0.00074162
Loading maneuver chart data...
Computing Atmospheric mass density...

Documentation

Showing up to 5 results
|